Location: Colebrook
(42.0017°N, 73.0973°W)
Time: 22:42:58
(UTC-04:00)

Envisat - Pass Details

Date: 04 October 2021
Orbit: 764 x 766 km, 98.2° (Epoch: 22 October)

Event Time Altitude Azimuth Distance (km) Brightness Sun altitude
Rises 06:03:04 0° 13° (NNE) 3,239 6.5 -10.1°
Reaches altitude 10° 06:05:22 10° 14° (NNE) 2,309 5.7 -9.6°
Maximum altitude 06:10:29 87° 104° (ESE) 771 3.1 -8.7°
Drops below altitude 10° 06:15:33 10° 193° (SSW) 2,292 5.3 -7.8°
Sets 06:17:50 0° 194° (SSW) 3,214 6.1 -7.3°
